Time,TemperatureF,DewpointF,PressureIn,WindDirection,WindDirectionDegrees,WindSpeedMPH,WindSpeedGustMPH,Humidity,HourlyPrecipIn,Conditions,Clouds,dailyrainin,SoftwareType,DateUTC
2013-04-28 00:03:00,44.0,-99.9,30.32,SW,235,0.0,3.0,82,0.00,,,0.00,,2013-04-28 04:03:00,
2013-04-28 00:13:00,44.0,39.0,30.32,SW,235,0.0,3.0,82,0.00,,,0.00,,2013-04-28 04:13:00,
2013-04-28 00:23:00,44.0,39.0,30.32,SW,236,0.0,0.0,81,0.00,,,0.00,,2013-04-28 04:23:00,
2013-04-28 00:32:00,44.0,39.0,30.32,SW,236,0.0,0.0,81,0.00,,,0.00,,2013-04-28 04:32:00,
2013-04-28 00:43:00,44.0,39.0,30.32,SW,236,0.0,0.0,81,0.00,,,0.00,,2013-04-28 04:43:00,
2013-04-28 00:53:00,43.0,38.0,30.32,SW,236,0.0,1.0,83,0.00,,,0.00,,2013-04-28 04:53:00,
2013-04-28 01:02:00,43.0,38.0,30.32,WSW,238,0.0,2.0,82,0.00,,,0.00,,2013-04-28 05:02:00,
2013-04-28 01:12:00,43.0,38.0,30.32,WSW,238,0.0,2.0,82,0.00,,,0.00,,2013-04-28 05:12:00,
2013-04-28 01:22:00,42.0,37.0,30.32,WSW,239,0.0,0.0,82,0.00,,,0.00,,2013-04-28 05:22:00,
2013-04-28 01:32:00,42.0,37.0,30.32,WSW,239,0.0,0.0,83,0.00,,,0.00,,2013-04-28 05:32:00,
2013-04-28 01:42:00,42.0,37.0,30.32,WSW,239,0.0,0.0,83,0.00,,,0.00,,2013-04-28 05:42:00,
2013-04-28 01:52:00,42.0,38.0,30.32,WSW,239,0.0,0.0,84,0.00,,,0.00,,2013-04-28 05:52:00,
2013-04-28 02:01:00,41.0,37.0,30.31,WSW,239,0.0,0.0,84,0.00,,,0.00,,2013-04-28 06:01:00,
2013-04-28 02:12:00,41.0,37.0,30.31,WSW,239,0.0,0.0,84,0.00,,,0.00,,2013-04-28 06:12:00,
2013-04-28 02:21:00,41.0,37.0,30.31,WSW,239,0.0,0.0,84,0.00,,,0.00,,2013-04-28 06:21:00,
2013-04-28 02:32:00,40.0,36.0,30.31,WSW,239,0.0,0.0,85,0.00,,,0.00,,2013-04-28 06:32:00,
2013-04-28 02:42:00,40.0,36.0,30.31,WSW,239,0.0,0.0,85,0.00,,,0.00,,2013-04-28 06:42:00,
2013-04-28 02:52:00,40.0,36.0,30.30,WSW,239,0.0,0.0,86,0.00,,,0.00,,2013-04-28 06:52:00,
2013-04-28 03:02:00,40.0,36.0,30.30,WSW,239,0.0,0.0,86,0.00,,,0.00,,2013-04-28 07:02:00,
2013-04-28 03:11:00,40.0,36.0,30.30,WSW,239,0.0,0.0,86,0.00,,,0.00,,2013-04-28 07:11:00,
2013-04-28 03:21:00,39.0,35.0,30.30,WSW,239,0.0,0.0,86,0.00,,,0.00,,2013-04-28 07:21:00,
2013-04-28 03:32:00,39.0,36.0,30.30,WSW,239,0.0,0.0,88,0.00,,,0.00,,2013-04-28 07:32:00,
2013-04-28 03:42:00,39.0,36.0,30.30,WSW,239,0.0,0.0,88,0.00,,,0.00,,2013-04-28 07:42:00,
2013-04-28 03:52:00,39.0,35.0,30.29,WSW,239,0.0,0.0,87,0.00,,,0.00,,2013-04-28 07:52:00,
2013-04-28 04:02:00,40.0,37.0,30.29,WSW,239,0.0,0.0,88,0.00,,,0.00,,2013-04-28 08:02:00,
2013-04-28 04:11:00,40.0,37.0,30.29,WSW,239,0.0,0.0,88,0.00,,,0.00,,2013-04-28 08:11:00,
2013-04-28 04:21:00,39.0,35.0,30.30,WSW,239,0.0,0.0,87,0.00,,,0.00,,2013-04-28 08:21:00,
2013-04-28 04:32:00,39.0,35.0,30.29,WSW,239,0.0,0.0,87,0.00,,,0.00,,2013-04-28 08:32:00,
2013-04-28 04:42:00,39.0,35.0,30.29,WSW,239,0.0,0.0,87,0.00,,,0.00,,2013-04-28 08:42:00,
2013-04-28 04:52:00,39.0,35.0,30.30,WSW,239,0.0,0.0,87,0.00,,,0.00,,2013-04-28 08:52:00,
2013-04-28 05:01:00,39.0,35.0,30.30,WSW,239,0.0,0.0,87,0.00,,,0.00,,2013-04-28 09:01:00,
2013-04-28 05:11:00,38.0,35.0,30.29,WSW,238,0.0,1.0,89,0.00,,,0.00,,2013-04-28 09:11:00,
2013-04-28 05:12:00,39.0,35.0,30.30,WSW,239,0.0,0.0,87,0.00,,,0.00,,2013-04-28 09:12:00,
2013-04-28 05:33:00,38.0,35.0,30.29,WSW,238,0.0,1.0,89,0.00,,,0.00,,2013-04-28 09:33:00,
2013-04-28 05:42:00,38.0,35.0,30.29,WSW,238,0.0,1.0,89,0.00,,,0.00,,2013-04-28 09:42:00,
2013-04-28 05:53:00,38.0,35.0,30.29,WSW,238,0.0,1.0,89,0.00,,,0.00,,2013-04-28 09:53:00,
2013-04-28 06:03:00,38.0,35.0,30.29,WSW,238,0.0,1.0,89,0.00,,,0.00,,2013-04-28 10:03:00,
2013-04-28 06:53:00,40.0,38.0,30.30,SSW,193,0.0,1.0,91,0.00,,,0.00,,2013-04-28 10:53:00,
2013-04-28 07:02:00,41.0,39.0,30.30,South,191,0.0,1.0,92,0.00,,,0.00,,2013-04-28 11:02:00,
2013-04-28 07:11:00,41.0,39.0,30.30,South,191,0.0,1.0,92,0.00,,,0.00,,2013-04-28 11:11:00,
2013-04-28 07:22:00,43.0,41.0,30.31,SSW,197,0.0,0.0,92,0.00,,,0.00,,2013-04-28 11:22:00,
2013-04-28 07:32:00,43.0,41.0,30.31,SSW,197,0.0,0.0,92,0.00,,,0.00,,2013-04-28 11:32:00,
2013-04-28 07:42:00,43.0,41.0,30.31,SSW,197,0.0,0.0,92,0.00,,,0.00,,2013-04-28 11:42:00,
2013-04-28 07:52:00,48.0,44.0,30.32,SSW,202,0.0,5.0,87,0.00,,,0.00,,2013-04-28 11:52:00,
2013-04-28 08:02:00,48.0,44.0,30.32,SSW,202,0.0,5.0,87,0.00,,,0.00,,2013-04-28 12:02:00,
2013-04-28 08:12:00,48.0,44.0,30.32,SSW,202,0.0,5.0,87,0.00,,,0.00,,2013-04-28 12:12:00,
2013-04-28 08:22:00,51.0,44.0,30.32,SSW,192,0.0,6.0,78,0.00,,,0.00,,2013-04-28 12:22:00,
2013-04-28 08:32:00,51.0,44.0,30.32,SSW,192,0.0,6.0,78,0.00,,,0.00,,2013-04-28 12:32:00,
2013-04-28 08:42:00,51.0,44.0,30.32,SSW,192,0.0,6.0,78,0.00,,,0.00,,2013-04-28 12:42:00,
2013-04-28 08:52:00,54.0,45.0,30.32,SSW,207,0.0,3.0,71,0.00,,,0.00,,2013-04-28 12:52:00,
2013-04-28 09:02:00,55.0,45.0,30.33,South,181,0.0,4.0,69,0.00,,,0.00,,2013-04-28 13:02:00,
2013-04-28 09:11:00,55.0,45.0,30.33,South,181,0.0,4.0,69,0.00,,,0.00,,2013-04-28 13:11:00,
2013-04-28 09:21:00,56.0,44.0,30.33,South,189,0.0,4.0,65,0.00,,,0.00,,2013-04-28 13:21:00,
2013-04-28 09:32:00,56.0,44.0,30.33,South,189,0.0,4.0,65,0.00,,,0.00,,2013-04-28 13:32:00,
2013-04-28 09:42:00,56.0,44.0,30.33,South,189,0.0,4.0,65,0.00,,,0.00,,2013-04-28 13:42:00,
2013-04-28 09:52:00,59.0,43.0,30.34,SSW,206,1.0,6.0,55,0.00,,,0.00,,2013-04-28 13:52:00,
2013-04-28 10:01:00,60.0,45.0,30.34,SSW,203,4.0,9.0,57,0.00,,,0.00,,2013-04-28 14:01:00,
2013-04-28 10:02:00,60.0,45.0,30.34,SSW,209,0.0,5.0,58,0.00,,,0.00,,2013-04-28 14:02:00,
2013-04-28 10:11:00,60.0,45.0,30.34,SSW,209,0.0,5.0,58,0.00,,,0.00,,2013-04-28 14:11:00,
2013-04-28 10:22:00,60.0,45.0,30.34,SSW,203,4.0,9.0,57,0.00,,,0.00,,2013-04-28 14:22:00,
2013-04-28 10:32:00,60.0,45.0,30.34,SSW,203,4.0,9.0,57,0.00,,,0.00,,2013-04-28 14:32:00,
2013-04-28 10:42:00,60.0,45.0,30.34,SSW,203,4.0,9.0,57,0.00,,,0.00,,2013-04-28 14:42:00,
2013-04-28 10:52:00,60.0,45.0,30.34,SSW,203,4.0,9.0,57,0.00,,,0.00,,2013-04-28 14:52:00,
2013-04-28 11:22:00,61.0,40.0,30.34,SSE,165,4.0,10.0,45,0.00,,,0.00,,2013-04-28 15:22:00,
2013-04-28 11:33:00,61.0,42.0,30.33,South,175,7.0,11.0,50,0.00,,,0.00,,2013-04-28 15:33:00,
2013-04-28 11:43:00,61.0,42.0,30.33,South,175,7.0,11.0,50,0.00,,,0.00,,2013-04-28 15:43:00,
2013-04-28 11:53:00,62.0,41.0,30.33,SW,222,4.0,11.0,46,0.00,,,0.00,,2013-04-28 15:53:00,
2013-04-28 12:03:00,62.0,39.0,30.33,South,179,3.0,13.0,43,0.00,,,0.00,,2013-04-28 16:03:00,
2013-04-28 12:13:00,62.0,39.0,30.33,South,179,3.0,13.0,43,0.00,,,0.00,,2013-04-28 16:13:00,
2013-04-28 12:23:00,61.0,40.0,30.33,SSE,168,6.0,12.0,46,0.00,,,0.00,,2013-04-28 16:23:00,
2013-04-28 12:33:00,61.0,39.0,30.32,SSW,207,9.0,15.0,44,0.00,,,0.00,,2013-04-28 16:33:00,
2013-04-28 12:42:00,61.0,39.0,30.32,SSW,207,9.0,15.0,44,0.00,,,0.00,,2013-04-28 16:42:00,
2013-04-28 12:52:00,61.0,39.0,30.32,South,188,8.0,13.0,44,0.00,,,0.00,,2013-04-28 16:52:00,
2013-04-28 13:02:00,60.0,37.0,30.32,SSE,153,6.0,13.0,42,0.00,,,0.00,,2013-04-28 17:02:00,
2013-04-28 13:12:00,60.0,37.0,30.32,SSE,153,6.0,13.0,42,0.00,,,0.00,,2013-04-28 17:12:00,
2013-04-28 13:22:00,60.0,37.0,30.31,SSE,159,8.0,13.0,43,0.00,,,0.00,,2013-04-28 17:22:00,
2013-04-28 13:32:00,60.0,39.0,30.31,SSE,147,7.0,13.0,46,0.00,,,0.00,,2013-04-28 17:32:00,
2013-04-28 13:42:00,60.0,39.0,30.31,SSE,147,7.0,13.0,46,0.00,,,0.00,,2013-04-28 17:42:00,
2013-04-28 13:52:00,60.0,40.0,30.31,SE,144,7.0,13.0,47,0.00,,,0.00,,2013-04-28 17:52:00,
2013-04-28 14:02:00,60.0,40.0,30.31,SSE,163,8.0,15.0,47,0.00,,,0.00,,2013-04-28 18:02:00,
2013-04-28 14:12:00,60.0,40.0,30.31,SSE,163,8.0,15.0,47,0.00,,,0.00,,2013-04-28 18:12:00,
2013-04-28 14:22:00,60.0,42.0,30.31,SSW,199,8.0,16.0,51,0.00,,,0.00,,2013-04-28 18:22:00,
2013-04-28 14:32:00,60.0,43.0,30.31,South,173,6.0,13.0,54,0.00,,,0.00,,2013-04-28 18:32:00,
2013-04-28 14:42:00,60.0,43.0,30.31,South,173,6.0,13.0,54,0.00,,,0.00,,2013-04-28 18:42:00,
2013-04-28 14:52:00,60.0,44.0,30.30,SSW,195,10.0,14.0,56,0.00,,,0.00,,2013-04-28 18:52:00,
2013-04-28 15:02:00,60.0,45.0,30.29,SSW,197,6.0,12.0,57,0.00,,,0.00,,2013-04-28 19:02:00,
2013-04-28 15:11:00,60.0,45.0,30.29,SSW,197,6.0,12.0,57,0.00,,,0.00,,2013-04-28 19:11:00,
2013-04-28 15:22:00,59.0,43.0,30.29,SSW,197,8.0,15.0,56,0.00,,,0.00,,2013-04-28 19:22:00,
2013-04-28 15:32:00,59.0,43.0,30.29,SSW,197,8.0,15.0,56,0.00,,,0.00,,2013-04-28 19:32:00,
2013-04-28 15:42:00,59.0,43.0,30.29,SSW,197,8.0,15.0,56,0.00,,,0.00,,2013-04-28 19:42:00,
2013-04-28 15:52:00,59.0,43.0,30.29,SSW,197,8.0,15.0,56,0.00,,,0.00,,2013-04-28 19:52:00,
2013-04-28 16:02:00,58.0,45.0,30.29,South,171,7.0,14.0,61,0.00,,,0.00,,2013-04-28 20:02:00,
2013-04-28 16:12:00,58.0,45.0,30.29,South,171,7.0,14.0,61,0.00,,,0.00,,2013-04-28 20:12:00,
2013-04-28 16:22:00,58.0,46.0,30.28,SW,219,7.0,14.0,64,0.00,,,0.00,,2013-04-28 20:22:00,
2013-04-28 16:32:00,58.0,46.0,30.28,SW,219,7.0,14.0,64,0.00,,,0.00,,2013-04-28 20:32:00,
2013-04-28 16:42:00,58.0,46.0,30.28,SW,219,7.0,14.0,64,0.00,,,0.00,,2013-04-28 20:42:00,
2013-04-28 16:52:00,57.0,46.0,30.27,SSW,213,7.0,13.0,66,0.00,,,0.00,,2013-04-28 20:52:00,
2013-04-28 17:01:00,57.0,46.0,30.27,SSW,213,7.0,13.0,66,0.00,,,0.00,,2013-04-28 21:01:00,
2013-04-28 17:12:00,57.0,46.0,30.27,SSW,213,7.0,13.0,66,0.00,,,0.00,,2013-04-28 21:12:00,
2013-04-28 17:22:00,57.0,47.0,30.28,SW,220,7.0,15.0,68,0.00,,,0.00,,2013-04-28 21:22:00,
2013-04-28 17:33:00,56.0,46.0,30.27,SW,215,7.0,13.0,68,0.00,,,0.00,,2013-04-28 21:33:00,
2013-04-28 17:42:00,56.0,46.0,30.27,SW,215,7.0,13.0,68,0.00,,,0.00,,2013-04-28 21:42:00,
2013-04-28 17:53:00,56.0,46.0,30.27,SSW,213,5.0,14.0,68,0.00,,,0.00,,2013-04-28 21:53:00,
2013-04-28 18:03:00,56.0,45.0,30.27,SSW,206,9.0,15.0,67,0.00,,,0.00,,2013-04-28 22:03:00,
2013-04-28 18:13:00,56.0,45.0,30.27,SSW,206,9.0,15.0,67,0.00,,,0.00,,2013-04-28 22:13:00,
2013-04-28 18:23:00,56.0,46.0,30.27,SSW,204,8.0,12.0,69,0.00,,,0.00,,2013-04-28 22:23:00,
2013-04-28 18:33:00,55.0,45.0,30.27,SSW,213,6.0,13.0,70,0.00,,,0.00,,2013-04-28 22:33:00,
2013-04-28 18:42:00,55.0,45.0,30.27,SSW,213,6.0,13.0,70,0.00,,,0.00,,2013-04-28 22:42:00,
2013-04-28 18:52:00,55.0,46.0,30.27,SW,217,6.0,13.0,71,0.00,,,0.00,,2013-04-28 22:52:00,
2013-04-28 19:02:00,55.0,46.0,30.27,SW,217,6.0,13.0,71,0.00,,,0.00,,2013-04-28 23:02:00,
2013-04-28 19:12:00,55.0,46.0,30.27,SW,217,6.0,13.0,71,0.00,,,0.00,,2013-04-28 23:12:00,
2013-04-28 19:21:00,52.0,46.0,30.27,SSW,206,3.0,9.0,79,0.00,,,0.00,,2013-04-28 23:21:00,
2013-04-28 19:22:00,53.0,45.0,30.28,SW,233,6.0,11.0,74,0.00,,,0.00,,2013-04-28 23:22:00,
2013-04-28 19:32:00,53.0,45.0,30.28,SW,233,6.0,11.0,74,0.00,,,0.00,,2013-04-28 23:32:00,
2013-04-28 19:42:00,53.0,45.0,30.28,SW,233,6.0,11.0,74,0.00,,,0.00,,2013-04-28 23:42:00,
2013-04-28 19:52:00,52.0,46.0,30.27,SSW,206,3.0,9.0,79,0.00,,,0.00,,2013-04-28 23:52:00,
2013-04-28 20:01:00,52.0,46.0,30.27,SSW,206,3.0,9.0,79,0.00,,,0.00,,2013-04-29 00:01:00,
2013-04-28 20:11:00,52.0,46.0,30.27,SSW,206,3.0,9.0,79,0.00,,,0.00,,2013-04-29 00:11:00,
2013-04-28 20:32:00,51.0,46.0,30.27,SSW,193,1.0,6.0,84,0.00,,,0.00,,2013-04-29 00:32:00,
2013-04-28 20:42:00,51.0,46.0,30.27,SSW,193,1.0,6.0,84,0.00,,,0.00,,2013-04-29 00:42:00,
2013-04-28 20:52:00,50.0,46.0,30.27,SSW,201,0.0,6.0,86,0.00,,,0.00,,2013-04-29 00:52:00,
2013-04-28 21:01:00,50.0,46.0,30.27,SSW,201,0.0,6.0,86,0.00,,,0.00,,2013-04-29 01:01:00,
2013-04-28 21:12:00,50.0,46.0,30.26,South,185,3.0,5.0,87,0.00,,,0.00,,2013-04-29 01:12:00,
2013-04-28 21:21:00,50.0,46.0,30.26,South,185,3.0,5.0,87,0.00,,,0.00,,2013-04-29 01:21:00,
2013-04-28 21:32:00,50.0,46.0,30.26,South,182,2.0,6.0,87,0.00,,,0.00,,2013-04-29 01:32:00,
2013-04-28 21:42:00,50.0,46.0,30.26,South,182,2.0,6.0,87,0.00,,,0.00,,2013-04-29 01:42:00,
2013-04-28 21:52:00,50.0,46.0,30.26,South,182,2.0,6.0,87,0.00,,,0.00,,2013-04-29 01:52:00,
2013-04-28 22:02:00,49.0,46.0,30.26,SSW,207,1.0,7.0,88,0.00,,,0.00,,2013-04-29 02:02:00,
2013-04-28 22:11:00,49.0,46.0,30.26,SSW,207,1.0,7.0,88,0.00,,,0.00,,2013-04-29 02:11:00,
2013-04-28 22:22:00,49.0,46.0,30.26,SSW,197,3.0,5.0,88,0.00,,,0.00,,2013-04-29 02:22:00,
2013-04-28 22:32:00,49.0,46.0,30.26,SSW,195,0.0,5.0,88,0.00,,,0.00,,2013-04-29 02:32:00,
2013-04-28 22:42:00,49.0,46.0,30.26,SSW,195,0.0,5.0,88,0.00,,,0.00,,2013-04-29 02:42:00,
2013-04-28 22:52:00,49.0,46.0,30.26,SSW,195,0.0,5.0,88,0.00,,,0.00,,2013-04-29 02:52:00,
2013-04-28 23:01:00,49.0,46.0,30.26,SSW,195,0.0,5.0,88,0.00,,,0.00,,2013-04-29 03:01:00,
2013-04-28 23:53:00,47.0,45.0,30.27,SW,223,0.0,1.0,92,0.00,,,0.00,,2013-04-29 03:53:00,